Вернуться в каталог

STARLINK-36253

АктивенСвязьSSO
NORAD 68028·PAYLOAD·🇺🇸 United States

Запущен Mar 1, 2026 с Vandenberg Space Force Base

Loading…

Ближайшие Пролёты (ближайшие 24 часа)

TLE

СвежийSource: CelesTrak SupGP

Эпоха: Sep 14, 2026, 22:24 UTC

1 68028C 26040P   26257.93381944  .00129940  00000+0  22070-2 0  2573
2 68028  97.2808 205.4405 0006644  95.4763 277.9411 15.51404983    16

Отслеживайте STARLINK-36253 в реальном времени с AllMySat

Download on the App Store